M I D A S
Marine Information and Data Acquisition System
Tripno 63 of the Zeeleeuw from 2001-08-31 06:08:46 to 2001-08-31 19:00:00
Back to CruiseResearch ActivitiesStationsMapUnderway DataData graphs

EquipmentUnitsComment
TimeDGPSUTC
LatitudeDGPSDM.mWGS84
LongitudeDGPSDM.mWGS84
HeadingGyrodeg 
SOGDGPSknotsSpeed over ground
COGDGPSdegCourse over ground
DepthEcho soundermeters200 kHz
Missing or incorrect values are displayed as -999
Navigation data collected by the RV Zeeleeuw from 2001-08-31 06:08:46 to 2001-08-31 19:00:00
Time Latitude Longitude Heading SOG COG Depth
2001-08-31 06:09:52 51°13.678 2°55.922 129.7   335 -999
2001-08-31 06:10:52 51°13.678 2°55.922 129.5   325 -999
2001-08-31 06:11:52 51°13.678 2°55.922 129.5   322.9 -999
2001-08-31 06:12:52 51°13.678 2°55.922 129.7   314 -999
2001-08-31 06:13:52 51°13.677 2°55.922 129.7   344.3 -999
2001-08-31 06:14:52 51°13.678 2°55.922 129.7   349.6 -999
2001-08-31 06:15:52 51°13.678 2°55.922 129.8   5.7 -999
2001-08-31 06:16:52 51°13.678 2°55.922 129.7   336.8 -999
2001-08-31 06:17:52 51°13.678 2°55.923 129.7   327.2 -999
2001-08-31 07:12:34 51°13.68 2°55.922 129.8   324.7 -999
2001-08-31 07:13:35 51°13.679 2°55.923 130   7 -999
2001-08-31 07:14:30 51°13.679 2°55.923 130   52.3 6.4
2001-08-31 07:15:30 51°13.679 2°55.922 130   350.7 6.4
2001-08-31 07:16:30 51°13.678 2°55.922 130   290.8 6.4
2001-08-31 07:17:30 51°13.678 2°55.922 130.2   288.4 6.4
2001-08-31 07:18:30 51°13.678 2°55.922 130.3   297.9 6.5
2001-08-31 07:19:30 51°13.678 2°55.922 130.3   272.6 6.5
2001-08-31 07:20:30 51°13.678 2°55.922 130.3   292.7 6.5
2001-08-31 07:21:30 51°13.678 2°55.922 130.3   315.9 6.5
2001-08-31 07:22:30 51°13.678 2°55.922 130.3   280.1 6.5
2001-08-31 07:23:30 51°13.677 2°55.922 130.3   261.6 6.5
2001-08-31 07:24:30 51°13.677 2°55.923 130.3   309.1 6.5
2001-08-31 07:25:30 51°13.677 2°55.922 130.5   293.7 6.5
2001-08-31 07:26:30 51°13.678 2°55.923 130.3   50.3 6.5
2001-08-31 07:27:30 51°13.678 2°55.925 130.3   273.2 6.5
2001-08-31 07:28:30 51°13.678 2°55.925 130.3   295.9 6.6
2001-08-31 07:29:30 51°13.678 2°55.925 130.5   312.5 6.6
2001-08-31 07:30:30 51°13.678 2°55.925 130.5   290 6.5
2001-08-31 07:31:30 51°13.677 2°55.925 130.8   5.5 6.6
2001-08-31 07:32:30 51°13.677 2°55.925 131   242 -999
2001-08-31 07:33:30 51°13.677 2°55.924 128.8   188.1 6.6
2001-08-31 07:34:30 51°13.676 2°55.924 121.2 0.1 188.3 6.7
2001-08-31 07:35:30 51°13.676 2°55.924 115.2   218 6.7
2001-08-31 07:36:30 51°13.676 2°55.924 111.3   204.9 6.6
2001-08-31 07:37:30 51°13.675 2°55.923 104 0.1 208.6 6.6
2001-08-31 07:38:30 51°13.674 2°55.922 96.2 0.2 270.8 6.9
2001-08-31 07:39:32 51°13.675 2°55.841 88.8 3.8 268.4 -999
2001-08-31 07:40:30 51°13.669 2°55.768 75.2 2.1 261.7 9.3
2001-08-31 07:41:30 51°13.695 2°55.784 14.2 0.3 22.2 12
2001-08-31 07:42:30 51°13.721 2°55.76 329.3 5.2 327.3 11.3
2001-08-31 07:43:30 51°13.813 2°55.657 331.3 7.3 327.2 10.9
2001-08-31 07:44:30 51°13.926 2°55.567 339.2 7.9 335.2 10.4
2001-08-31 07:45:30 51°14.034 2°55.49 340.2 6.2 336.5 10.5
2001-08-31 07:46:30 51°14.122 2°55.426 337.3 6.2 334 10.4
2001-08-31 07:47:30 51°14.226 2°55.313 323 8.5 319.3 10.6
2001-08-31 07:48:30 51°14.342 2°55.12 315 11 311.5 10.3
2001-08-31 07:49:30 51°14.48 2°54.898 324.8 12 318.4 9.9
2001-08-31 07:50:30 51°14.638 2°54.706 330.3 12 324.5 9.6
2001-08-31 07:51:30 51°14.81 2°54.548 339 11.9 333.3 9.7
2001-08-31 07:52:30 51°14.988 2°54.402 338.3 12.1 332.5 8.9
2001-08-31 07:53:30 51°15.167 2°54.249 338.3 12.4 331.2 9.1
2001-08-31 07:54:30 51°15.355 2°54.086 338 13.1 331.2 9.7
2001-08-31 07:55:30 51°15.545 2°53.915 337.2 13.1 330 10.6
2001-08-31 07:56:30 51°15.733 2°53.739 337.3 13.1 329.8 11.4
2001-08-31 07:57:30 51°15.92 2°53.561 337 13 329.3 12
2001-08-31 07:58:30 51°16.106 2°53.388 336.7 13 329.6 12.5
2001-08-31 07:59:30 51°16.293 2°53.215 336.5 13.1 329.7 12.7
2001-08-31 08:00:30 51°16.481 2°53.039 335.5 13.1 329.1 12.5
2001-08-31 08:01:30 51°16.668 2°52.863 334.2 13 328.5 11.6
2001-08-31 08:02:30 51°16.851 2°52.686 335 12.8 329.1 9.9
2001-08-31 08:03:30 51°17.032 2°52.508 334.7 12.7 328.3 10.1
2001-08-31 08:04:30 51°17.213 2°52.326 333.7 12.9 327.6 10.6
2001-08-31 08:05:30 51°17.393 2°52.14 332.8 12.8 326.3 11
2001-08-31 08:06:30 51°17.571 2°51.954 333.3 12.9 326.4 10.9
2001-08-31 08:07:30 51°17.694 2°51.675 301.5 13.1 295 10.6
2001-08-31 08:08:30 51°17.784 2°51.355 300.2 13.3 293.5 10.8
2001-08-31 08:09:30 51°17.869 2°51.028 299.5 13.3 292.5 11.9
2001-08-31 08:10:30 51°17.957 2°50.704 300.2 13.4 293.2 13.1
2001-08-31 08:11:30 51°18.046 2°50.379 300.2 13.4 293 13.8
2001-08-31 08:12:30 51°18.132 2°50.048 301.5 13.4 293.6 14.5
2001-08-31 08:13:30 51°18.22 2°49.722 301.5 13.4 293.6 14.2
2001-08-31 08:14:30 51°18.308 2°49.394 300.2 13.4 293.1 12.4
2001-08-31 08:15:30 51°18.396 2°49.069 301.5 13.3 294.8 10.9
2001-08-31 08:16:30 51°18.484 2°48.744 300.2 13.3 293.8 11.6
2001-08-31 08:17:30 51°18.572 2°48.417 300.2 13.5 293.4 12.8
2001-08-31 08:18:30 51°18.663 2°48.089 299.3 13.5 292.2 14.8
2001-08-31 08:19:30 51°18.752 2°47.761 302.3 13.5 294.4 16.7
2001-08-31 08:20:30 51°18.84 2°47.428 299.8 13.6 291.6 19
2001-08-31 08:21:30 51°18.933 2°47.098 303.5 13.6 295.1 20.4
2001-08-31 08:22:30 51°19.023 2°46.767 302.3 13.6 294.4 21.6
2001-08-31 08:23:30 51°19.117 2°46.439 303.2 13.5 295.1 22
2001-08-31 08:24:30 51°19.207 2°46.11 300.5 13.5 292.8 20.3
2001-08-31 08:25:30 51°19.3 2°45.782 301.5 13.5 294.6 16.2
2001-08-31 08:26:30 51°19.389 2°45.459 300.7 13.3 294.5 13.3
2001-08-31 08:27:30 51°19.476 2°45.133 297.8 13.4 292.4 13.9
2001-08-31 08:28:30 51°19.564 2°44.806 299.5 13.4 293.4 22.2
2001-08-31 08:29:30 51°19.651 2°44.476 297.2 13.5 290.7 23.3
2001-08-31 08:30:30 51°19.735 2°44.145 299.8 13.5 292.9 24.8
2001-08-31 08:32:35 51°19.923 2°43.455 303.3 13.6 296.3 27.2
2001-08-31 08:33:35 51°20.013 2°43.127 299.2 13.5 291.8 27.1
2001-08-31 08:34:35 51°20.105 2°42.802 301.8 13.3 295.5 26.2
2001-08-31 08:35:35 51°20.192 2°42.475 300.7 13.3 293.9 24.1
2001-08-31 08:36:35 51°20.279 2°42.152 299.3 13.2 292.7 21.1
2001-08-31 08:37:35 51°20.363 2°41.829 299.3 13.1 292.9 19.7
2001-08-31 08:38:35 51°20.456 2°41.514 299.2 13.2 293.1 20.8
2001-08-31 08:39:35 51°20.539 2°41.189 302.2 13.2 295.5 28.1
2001-08-31 08:40:36 51°20.636 2°40.865 301.7 13.3 295.5 27.7
2001-08-31 08:41:35 51°20.726 2°40.551 300.3 13.2 293.9 27.5
2001-08-31 08:42:35 51°20.817 2°40.23 300.2 13.3 294.2 27.4
2001-08-31 08:43:35 51°20.903 2°39.904 299.8 13.3 293.6 27.4
2001-08-31 08:44:36 51°20.988 2°39.572 292.3 13.3 286.5 26.4
2001-08-31 08:45:35 51°20.998 2°39.222 272.8 13.5 267 26.3
2001-08-31 08:46:35 51°20.992 2°38.863 275.7 13.5 269.6 25.5
2001-08-31 08:47:35 51°20.995 2°38.504 274.7 13.5 269 25.7
2001-08-31 08:48:35 51°21.005 2°38.145 280.5 13.6 274.9 26
2001-08-31 08:49:35 51°21.009 2°37.785 276.2 13.6 270.1 26
2001-08-31 08:50:35 51°21.026 2°37.426 278.8 13.5 274 25.8
2001-08-31 08:51:35 51°21.028 2°37.069 275.8 13.5 270.2 24.6
2001-08-31 08:52:35 51°21.04 2°36.714 280.3 13.3 274 25.9
2001-08-31 08:53:35 51°21.059 2°36.362 282.7 13.4 277 28.6
2001-08-31 08:54:35 51°21.084 2°36.01 281.2 13.2 276 30.2
2001-08-31 08:55:35 51°21.098 2°35.661 276.7 13.2 271.6 32.3
2001-08-31 08:56:35 51°21.113 2°35.313 279.5 13.1 274.6 31.5
2001-08-31 08:57:35 51°21.128 2°34.967 277.7 13.1 273.4 33.5
2001-08-31 08:58:35 51°21.138 2°34.621 275.8 13 271.3 32.2
2001-08-31 08:59:35 51°21.154 2°34.278 280.7 12.9 276.3 31.6
2001-08-31 09:00:35 51°21.164 2°33.934 274.8 12.8 269.8 32.2
2001-08-31 09:01:35 51°21.174 2°33.597 279.3 12.8 275.4 33.4
2001-08-31 09:02:35 51°21.193 2°33.255 277.8 12.9 274.3 31.4
2001-08-31 09:03:35 51°21.194 2°32.91 275.2 13.1 268.4 28.7
2001-08-31 09:04:35 51°21.204 2°32.564 279.2 12.9 273.7 24.7
2001-08-31 09:05:35 51°21.227 2°32.228 295.2 12.4 288.7 21
2001-08-31 09:06:35 51°21.376 2°32.016 340.3 12.4 336.4 18.1
2001-08-31 09:07:35 51°21.576 2°31.908 343.7 12.8 341 22.2
2001-08-31 09:08:35 51°21.776 2°31.779 337.8 12.9 334.9 29.4
2001-08-31 09:09:35 51°21.967 2°31.62 332.7 12.9 329.4 32.3
2001-08-31 09:10:35 51°22.152 2°31.44 332.3 13 328.9 32
2001-08-31 09:11:35 51°22.335 2°31.259 328.7 13 325.5 31.2
2001-08-31 09:12:35 51°22.507 2°31.048 323.8 13 321 31.7
2001-08-31 09:13:35 51°22.63 2°30.771 294 12.9 291.1 32.6
2001-08-31 09:14:35 51°22.665 2°30.433 271 12.8 268.6 32.2
2001-08-31 09:15:35 51°22.628 2°30.096 259.5 12.9 256.2 34.4
2001-08-31 09:16:35 51°22.574 2°29.765 258.5 12.8 255.3 34.6
2001-08-31 09:17:35 51°22.523 2°29.435 259.5 12.8 256.2 34
2001-08-31 09:18:35 51°22.466 2°29.105 257.2 12.8 253.7 35.2
2001-08-31 09:19:35 51°22.402 2°28.777 256.7 12.9 253.5 35.3
2001-08-31 09:20:35 51°22.339 2°28.452 258.3 12.9 254.3 34.6
2001-08-31 09:21:35 51°22.285 2°28.122 257.5 12.8 253.9 35
2001-08-31 09:22:35 51°22.22 2°27.796 259.7 12.9 255.5 35.4
2001-08-31 09:23:35 51°22.165 2°27.462 258 13.1 253.4 35.4
2001-08-31 09:24:35 51°22.093 2°27.133 256.5 13.1 251.6 35.8
2001-08-31 09:25:35 51°22.025 2°26.804 261 13 255.8 35.9
2001-08-31 09:26:35 51°22.007 2°26.465 280.2 12.7 275.4 36.1
2001-08-31 09:27:35 51°22.065 2°26.143 295 12.7 291.6 37.2
2001-08-31 09:28:35 51°22.17 2°25.849 308.2 12.8 304.6 35
2001-08-31 09:29:35 51°22.309 2°25.592 312.3 12.8 310.2 27.6
2001-08-31 09:30:35 51°22.435 2°25.319 307 12.7 305.1 22.1
2001-08-31 09:31:35 51°22.559 2°25.049 311.3 12.6 309 31
2001-08-31 09:32:35 51°22.752 2°24.92 351 13.1 349 34.6
2001-08-31 09:33:35 51°22.967 2°24.849 352.7 13.3 350 35.4
2001-08-31 09:34:35 51°23.184 2°24.784 351.7 13.2 349.5 35.6
2001-08-31 09:35:35 51°23.396 2°24.706 348.8 13.2 347.3 36.1
2001-08-31 09:36:35 51°23.606 2°24.616 348.3 13 346 37
2001-08-31 09:37:35 51°23.821 2°24.541 349.7 13.1 348.4 36.4
2001-08-31 09:38:36 51°24.039 2°24.478 351.2 13.2 350 36.1
2001-08-31 09:39:36 51°24.255 2°24.413 350.7 13.2 348.6 36
2001-08-31 09:40:36 51°24.471 2°24.345 350.8 13.1 349.6 35.1
2001-08-31 09:41:36 51°24.685 2°24.282 348.8 13.1 348 35.7
2001-08-31 09:42:36 51°24.901 2°24.22 352 13.2 350.4 33.8
2001-08-31 09:43:36 51°25.117 2°24.155 349.7 13.1 348 35.8
2001-08-31 09:44:36 51°25.331 2°24.083 350.5 13.2 348.2 35.5
2001-08-31 09:45:36 51°25.544 2°24.011 350.7 13 348.8 35.9
2001-08-31 09:46:36 51°25.757 2°23.935 349.3 13.1 347.9 36.1
2001-08-31 09:47:36 51°25.972 2°23.882 353.2 13.2 351.4 37
2001-08-31 09:48:36 51°26.189 2°23.821 351 13.2 349.1 36.9
2001-08-31 09:49:36 51°26.404 2°23.742 345.8 13.3 344.3 37.1
2001-08-31 09:50:36 51°26.62 2°23.669 350.7 13.4 350 36.9
2001-08-31 09:51:36 51°26.841 2°23.603 349 13.4 348.3 32.7
2001-08-31 09:52:36 51°27.057 2°23.531 350.2 13.3 350 25.3
2001-08-31 09:53:36 51°27.272 2°23.46 350 13.1 349.9 20.9
2001-08-31 09:54:36 51°27.486 2°23.394 347.7 13.1 346.6 23.1
2001-08-31 09:55:36 51°27.7 2°23.307 347.3 13.3 346.4 29
2001-08-31 09:56:36 51°27.917 2°23.236 350.3 13.4 349.7 29.3
2001-08-31 09:57:36 51°28.135 2°23.168 350.3 13.3 349.6 20.4
2001-08-31 09:58:36 51°28.353 2°23.109 351.7 13.3 350.7 30.1
2001-08-31 09:59:36 51°28.572 2°23.04 348.5 13.3 348 28.7
2001-08-31 10:00:36 51°28.788 2°22.958 348.8 13.4 347 35.7
2001-08-31 10:01:36 51°29.007 2°22.888 349.2 13.4 347.8 39.1
2001-08-31 10:02:36 51°29.224 2°22.815 349.8 13.3 348.3 39
2001-08-31 10:03:36 51°29.442 2°22.743 349.7 13.4 348.6 39.4
2001-08-31 10:04:36 51°29.659 2°22.677 350.8 13.2 350.7 37.3
2001-08-31 10:05:36 51°29.877 2°22.609 350.7 13.3 349.7 34.1
2001-08-31 10:06:36 51°30.095 2°22.541 349 13.3 347.8 36.1
2001-08-31 10:07:36 51°30.313 2°22.468 349.2 13.4 348 33.8
2001-08-31 10:08:36 51°30.531 2°22.405 350.2 13.3 349.7 30.9
2001-08-31 10:09:36 51°30.749 2°22.336 350.3 13.3 349.3 29.4
2001-08-31 10:10:36 51°30.967 2°22.265 351.2 13.3 349.5 27.7
2001-08-31 10:11:36 51°31.19 2°22.239 359.2 13.4 357.3 33
2001-08-31 10:12:36 51°31.411 2°22.196 351.7 13.3 350.1 31.2
2001-08-31 10:13:36 51°31.617 2°22.068 335.3 13.2 333.1 32.7
2001-08-31 10:14:36 51°31.793 2°21.864 323.8 13.2 321.4 34
2001-08-31 10:15:36 51°31.962 2°21.642 323.8 13.1 322 36.2
2001-08-31 10:16:36 51°32.137 2°21.431 321.8 13.2 320.2 40.4
2001-08-31 10:17:36 51°32.308 2°21.207 321.3 13.2 319.7 39.5
2001-08-31 10:18:36 51°32.466 2°20.968 320.3 13.1 318.6 40.6
2001-08-31 10:19:36 51°32.642 2°20.76 326.5 13.1 325.1 41.2
2001-08-31 10:20:36 51°32.823 2°20.561 327.5 13.2 326.3 41.7
2001-08-31 10:21:36 51°32.999 2°20.353 324 13.2 323.2 37.4
2001-08-31 10:22:36 51°33.171 2°20.133 319.2 13.3 318.1 39.5
2001-08-31 10:23:36 51°33.325 2°19.883 320 13.1 318 40
2001-08-31 10:24:36 51°33.486 2°19.646 318.8 13.1 316.4 41
2001-08-31 10:25:36 51°33.659 2°19.43 322.5 13.2 321.4 41
2001-08-31 10:26:36 51°33.821 2°19.195 321 13.2 320.2 38.6
2001-08-31 10:27:36 51°33.997 2°18.982 325 13.2 324 40.8
2001-08-31 10:28:36 51°34.171 2°18.768 323.8 13.1 322.8 39.3
2001-08-31 10:29:36 51°34.348 2°18.559 325.2 13.1 324.2 38.8
2001-08-31 10:30:36 51°34.522 2°18.346 323.2 13.2 321.9 38.7
2001-08-31 10:31:36 51°34.702 2°18.148 333.2 13.2 332.4 37.6
2001-08-31 10:32:36 51°34.919 2°18.085 358 13.5 356.7 30.5
2001-08-31 10:33:36 51°35.143 2°18.106 12.2 13.5 10.6 33.3
2001-08-31 10:34:36 51°35.332 2°18.307 44 14 40.5 30.8
2001-08-31 10:35:36 51°35.517 2°18.533 37.8 13.9 35.3 32.2
2001-08-31 10:36:36 51°35.7 2°18.759 40.3 14 37.3 34
2001-08-31 10:37:36 51°35.883 2°18.986 39.8 13.7 36.9 31
2001-08-31 10:38:36 51°36.068 2°19.208 40.3 13.8 37.2 34
2001-08-31 10:39:36 51°36.248 2°19.441 39.7 13.9 36.4 36.3
2001-08-31 10:40:36 51°36.429 2°19.673 44.8 14 40.6 36.8
2001-08-31 10:41:36 51°36.607 2°19.917 45.5 14.1 41.6 31
2001-08-31 10:42:36 51°36.78 2°20.167 44.8 14.1 41.3 30.5
2001-08-31 10:43:36 51°36.958 2°20.416 44.8 14.3 42 37.9
2001-08-31 10:44:36 51°37.134 2°20.667 44.8 14.2 41.7 38.9
2001-08-31 10:45:36 51°37.31 2°20.917 46 14.2 42.8 37.3
2001-08-31 10:46:36 51°37.484 2°21.175 45.7 14.4 42.4 39.2
2001-08-31 10:47:36 51°37.662 2°21.425 43.7 14.2 40.8 38.1
2001-08-31 10:48:36 51°37.833 2°21.685 44.5 14.2 41.8 39.3
2001-08-31 10:49:36 51°38.01 2°21.939 46.2 14.2 42.3 39.1
2001-08-31 10:50:36 51°38.188 2°22.188 41.5 14.3 38.7 40.3
2001-08-31 10:51:36 51°38.376 2°22.419 41.5 14.2 38.6 40.8
2001-08-31 10:52:36 51°38.563 2°22.658 40.3 14.4 37.7 40.4
2001-08-31 10:53:36 51°38.744 2°22.908 42.7 14.3 40.4 40
2001-08-31 10:54:36 51°38.929 2°23.151 42.7 14.4 39.5 40.4
2001-08-31 10:55:36 51°39.11 2°23.398 45.2 14.2 42.5 41.3
2001-08-31 10:56:36 51°39.291 2°23.648 44.3 14.4 41.1 41.9
2001-08-31 10:57:36 51°39.469 2°23.905 46.5 14.3 43.6 42.5
2001-08-31 10:58:36 51°39.648 2°24.159 42.5 14.4 39.6 41.6
2001-08-31 10:59:36 51°39.834 2°24.404 44.3 14.5 40.9 42.4
2001-08-31 11:00:36 51°40.023 2°24.643 41.5 14.6 38.5 42.6
2001-08-31 11:01:36 51°40.211 2°24.885 42.2 14.4 38.8 43
2001-08-31 11:02:36 51°40.395 2°25.133 43.7 14.5 40.6 41.2
2001-08-31 11:03:36 51°40.583 2°25.374 39 14.4 36.6 43
2001-08-31 11:04:36 51°40.768 2°25.621 42.8 14.6 39.7 43.3
2001-08-31 11:05:36 51°40.956 2°25.866 41 14.5 38.8 41.3
2001-08-31 11:06:36 51°41.143 2°26.118 42.7 14.7 40 40.5
2001-08-31 11:07:36 51°41.327 2°26.368 44.5 14.5 41.3 41.1
2001-08-31 11:08:36 51°41.512 2°26.619 41.7 14.5 38.9 42.6
2001-08-31 11:09:36 51°41.702 2°26.86 42.8 14.5 40 41.3
2001-08-31 11:10:36 51°41.88 2°27.121 45.5 14.4 42.2 40.8
2001-08-31 11:11:36 51°42.062 2°27.376 43 14.4 39.4 41.3
2001-08-31 11:12:36 51°42.244 2°27.627 45 14.4 41.2 40.7
2001-08-31 11:13:36 51°42.423 2°27.886 45.2 14.5 41.6 41.4
2001-08-31 11:14:36 51°42.604 2°28.142 45 14.4 41.9 42.2
2001-08-31 11:15:36 51°42.785 2°28.399 41.8 14.5 39.5 42.2
2001-08-31 11:16:36 51°42.972 2°28.646 41.8 14.7 38.3 41.5
2001-08-31 11:17:36 51°43.164 2°28.887 41.2 14.6 38.3 41
2001-08-31 11:18:36 51°43.354 2°29.13 41.5 14.6 38 40.7
2001-08-31 11:19:36 51°43.54 2°29.375 43.2 14.6 39.3 40.9
2001-08-31 11:20:36 51°43.727 2°29.623 42.8 14.5 39.4 43.3
2001-08-31 11:21:36 51°43.912 2°29.874 43.8 14.7 40.7 43.7
2001-08-31 11:22:36 51°44.094 2°30.13 47 14.5 42.5 39.7
2001-08-31 11:23:36 51°44.28 2°30.378 44.8 14.4 41.3 41.8
2001-08-31 11:24:36 51°44.465 2°30.628 42.5 14.5 39.3 41.6
2001-08-31 11:25:36 51°44.65 2°30.878 45.8 14.5 42.3 40.8
2001-08-31 11:26:36 51°44.836 2°31.128 42.8 14.6 38.8 37.1
2001-08-31 11:27:36 51°45.02 2°31.383 41.2 14.6 37.9 41.3
2001-08-31 11:28:36 51°45.205 2°31.634 44 14.5 40.7 41.4
2001-08-31 11:29:36 51°45.389 2°31.889 46.3 14.8 42.1 39
2001-08-31 11:30:36 51°45.575 2°32.143 41.8 14.6 38.5 40.8
2001-08-31 11:31:36 51°45.764 2°32.393 43.5 14.7 40 39.8
2001-08-31 11:32:36 51°45.951 2°32.646 46.7 14.5 42.5 43.3
2001-08-31 11:33:36 51°46.107 2°32.936 71.3 14.3 61.5 42.8
2001-08-31 11:34:36 51°46.098 2°33.3 118.5 13.8 111 40.5
2001-08-31 11:35:36 51°45.951 2°33.575 144.2 13.3 135.6 42.2
2001-08-31 11:36:36 51°45.792 2°33.834 143 13.9 135.1 42.5
2001-08-31 11:37:36 51°45.621 2°34.062 150.8 13.2 142.1 36.2
2001-08-31 11:38:36 51°45.445 2°34.271 151.5 13.2 143.4 38.4
2001-08-31 11:39:36 51°45.265 2°34.474 154.7 13.4 146.7 40.3
2001-08-31 11:40:36 51°45.075 2°34.662 155.5 13.7 146.8 39.5
2001-08-31 11:41:36 51°44.901 2°34.885 148.5 13.3 138.8 40.9
2001-08-31 11:42:36 51°44.728 2°35.097 154.3 13.1 144.4 37.5
2001-08-31 11:43:36 51°44.551 2°35.297 155 13 146.1 38.4
2001-08-31 11:44:36 51°44.362 2°35.476 156.2 13.4 147.7 37.4
2001-08-31 11:45:36 51°44.177 2°35.659 152.8 13 143.9 40
2001-08-31 11:46:36 51°43.993 2°35.85 160 13.1 150.6 34.3
2001-08-31 11:47:36 51°43.814 2°36.055 150 13.4 141.7 38.2
2001-08-31 11:48:36 51°43.643 2°36.277 155 13.2 144.5 34.3
2001-08-31 11:49:36 51°43.462 2°36.479 154.8 13.1 146 32.6
2001-08-31 11:50:36 51°43.278 2°36.675 152.2 13.5 143.7 36.6
2001-08-31 11:51:36 51°43.101 2°36.891 151.2 13.4 142.4 35.3
2001-08-31 11:52:36 51°42.921 2°37.103 151 13.4 143.3 37
2001-08-31 11:53:36 51°42.743 2°37.314 149.5 13.4 141.5 34.6
2001-08-31 11:54:36 51°42.556 2°37.509 158.3 13.6 150 33.6
2001-08-31 11:55:36 51°42.382 2°37.727 147.8 13.4 138.7 36.8
2001-08-31 11:56:36 51°42.208 2°37.949 151.5 13.2 143.6 37.9
2001-08-31 11:57:36 51°42.024 2°38.139 152.3 13.2 144.3 38.2
2001-08-31 11:58:36 51°41.845 2°38.339 153.5 13.1 145.4 41.1
2001-08-31 11:59:36 51°41.666 2°38.528 152.5 13 143.7 40.2
2001-08-31 12:00:36 51°41.494 2°38.738 153.8 12.8 145.5 40.6
2001-08-31 12:01:36 51°41.317 2°38.932 155.7 12.9 146.2 42.9
2001-08-31 12:02:36 51°41.138 2°39.133 151.7 13.6 143.1 42.8
2001-08-31 12:03:36 51°40.958 2°39.345 151.7 13.2 142.7 40.4
2001-08-31 12:04:36 51°40.781 2°39.544 151.5 13 143.6 42.8
2001-08-31 12:05:36 51°40.604 2°39.749 155.2 13.1 147.3 37.2
2001-08-31 12:06:36 51°40.42 2°39.945 154.2 13.3 145.6 37.8
2001-08-31 12:07:36 51°40.242 2°40.158 157.3 13 148.7 38.1
2001-08-31 12:08:36 51°40.052 2°40.332 160.8 12.9 153 41.6
2001-08-31 12:09:36 51°39.871 2°40.524 154.7 13 145.6 32.4
2001-08-31 12:10:36 51°39.696 2°40.728 151.3 13 143.1 32.6
2001-08-31 12:11:36 51°39.547 2°40.994 135.8 13.6 127.6 29.4
2001-08-31 12:12:36 51°39.416 2°41.296 128.8 14 119.7 25.5
2001-08-31 12:13:36 51°39.311 2°41.633 120.8 14 113.6 27
2001-08-31 12:14:36 51°39.221 2°41.978 122.7 14.3 114.6 26.2
2001-08-31 12:15:36 51°39.119 2°42.313 120 14 114 29.8
2001-08-31 12:16:36 51°39.033 2°42.658 116.5 13.9 109.6 35.3
2001-08-31 12:17:36 51°38.941 2°42.997 122.5 13.8 115 37.4
2001-08-31 12:18:36 51°38.853 2°43.339 119.7 13.8 112.6 37.3
2001-08-31 12:19:36 51°38.765 2°43.683 117.8 14.2 111.2 38.6
2001-08-31 12:20:36 51°38.685 2°44.038 120.2 13.9 112.4 33.2
2001-08-31 12:21:36 51°38.613 2°44.396 117.2 13.9 109.8 39.6
2001-08-31 12:22:36 51°38.527 2°44.736 123.2 13.7 114.8 37
2001-08-31 12:23:36 51°38.433 2°45.074 120 13.7 111.6 28.2
2001-08-31 12:24:36 51°38.336 2°45.404 126.5 13.4 119.3 37.3
2001-08-31 12:25:36 51°38.224 2°45.713 139.2 13.3 131.9 33.6
2001-08-31 12:26:36 51°38.033 2°45.837 176.7 12.7 171.6 36.6
2001-08-31 12:27:36 51°37.83 2°45.823 191.7 12.2 186.3 37.5
2001-08-31 12:28:36 51°37.632 2°45.753 199 12.1 195 37.2
2001-08-31 12:29:36 51°37.433 2°45.682 199.8 12.5 194.5 37.1
2001-08-31 12:30:36 51°37.236 2°45.611 194.3 12.1 189.5 37.4
2001-08-31 12:31:36 51°37.036 2°45.555 194 12.3 189.3 35.5
2001-08-31 12:32:36 51°36.839 2°45.488 199.3 11.9 195.2 37.3
2001-08-31 12:33:36 51°36.71 2°45.286 256.8 11.2 258.1 38.4
2001-08-31 12:34:36 51°36.768 2°44.976 291.7 12.7 294.3 36.9
2001-08-31 12:35:36 51°36.872 2°44.677 297.7 12.8 301.4 37
2001-08-31 12:36:36 51°36.987 2°44.388 300.8 13 304.7 37.7
2001-08-31 12:37:36 51°37.114 2°44.098 302.3 13.2 306.2 33.8
2001-08-31 12:38:36 51°37.243 2°43.816 305 13.2 308.4 37.5
2001-08-31 12:39:36 51°37.383 2°43.54 304.3 13.3 307.1 35.6
2001-08-31 12:40:36 51°37.507 2°43.249 300.5 13.2 303.1 38.8
2001-08-31 12:41:36 51°37.635 2°42.962 302 13.2 304.6 37.9
2001-08-31 12:42:36 51°37.755 2°42.667 302.2 13.2 304.9 37.7
2001-08-31 12:43:36 51°37.892 2°42.39 308 13.3 310 36.6
2001-08-31 12:44:36 51°38.035 2°42.119 308.3 13.2 310.4 34.5
2001-08-31 12:45:36 51°38.184 2°41.857 310.2 13.2 312.6 26.9
2001-08-31 12:46:36 51°38.298 2°41.573 283.7 12.2 285.4 15.3
2001-08-31 12:47:36 51°38.31 2°41.253 270.3 12.1 272.7 24.8
2001-08-31 12:48:36 51°38.315 2°40.926 269.3 12.1 271.9 21.1
2001-08-31 12:49:36 51°38.329 2°40.602 270.8 12.2 273.9 30.1
2001-08-31 12:50:36 51°38.311 2°40.282 253.2 12 254.8 33.9
2001-08-31 12:51:36 51°38.255 2°39.972 251.3 12 252.8 37.6
2001-08-31 12:52:36 51°38.194 2°39.665 254.5 12.2 255.2 36.4
2001-08-31 12:53:36 51°38.047 2°39.499 194.5 11.8 189.6 39.8
2001-08-31 12:54:36 51°37.857 2°39.41 201 12.1 197.3 40.1
2001-08-31 12:55:36 51°37.666 2°39.307 200.5 12 197.5 40.5
2001-08-31 12:56:36 51°37.474 2°39.207 199 12.1 195.2 40.8
2001-08-31 12:57:36 51°37.278 2°39.117 202 12.3 197.2 39.7
2001-08-31 12:58:36 51°37.083 2°39.024 200.3 12 196.7 40.6
2001-08-31 12:59:36 51°36.887 2°38.931 200.3 12.4 196.1 38.4
2001-08-31 13:00:36 51°36.69 2°38.833 201.3 12.4 198.4 41.5
2001-08-31 13:01:36 51°36.493 2°38.738 202.7 12.3 198.3 39.5
2001-08-31 13:02:36 51°36.297 2°38.644 200.7 12.3 197.2 38
2001-08-31 13:03:36 51°36.105 2°38.54 200.5 12.1 197.6 37.8
2001-08-31 13:04:36 51°35.911 2°38.444 203.3 12.2 198.9 40.1
2001-08-31 13:05:36 51°35.718 2°38.342 202.5 12.2 198.8 38.7
2001-08-31 13:06:36 51°35.521 2°38.248 200.8 12.4 196.2 40.2
2001-08-31 13:07:36 51°35.322 2°38.164 200 12.3 195.5 40.8
2001-08-31 13:08:36 51°35.125 2°38.189 159.5 12.8 151.7 40.3
2001-08-31 13:09:36 51°35 2°38.475 126.7 13.4 118.1 39.3
2001-08-31 13:10:36 51°34.892 2°38.788 125.2 13.7 116.2 35.6
2001-08-31 13:11:36 51°34.778 2°39.103 125.5 13.7 117.2 32.6
2001-08-31 13:12:36 51°34.665 2°39.42 131.8 13.6 122.8 28.6
2001-08-31 13:13:36 51°34.549 2°39.733 129 13.6 120.9 24.5
2001-08-31 13:14:36 51°34.436 2°40.052 129.8 13.7 122.6 18.8
2001-08-31 13:15:36 51°34.33 2°40.38 124.3 13.9 117.5 30.9
2001-08-31 13:16:36 51°34.232 2°40.716 117.3 13.7 111.1 39.4
2001-08-31 13:17:36 51°34.143 2°41.053 126.5 13.6 118.4 39.1
2001-08-31 13:18:36 51°34.043 2°41.389 123.7 13.9 115.3 41.5
2001-08-31 13:19:36 51°33.945 2°41.726 123 14 114.4 40.9
2001-08-31 13:20:36 51°33.841 2°42.052 131.3 13.7 121.9 35.4
2001-08-31 13:21:36 51°33.725 2°42.366 129 13.3 119.7 38
2001-08-31 13:22:36 51°33.58 2°42.621 153.2 12.6 144.5 37.5
2001-08-31 13:23:36 51°33.387 2°42.708 182.7 12.1 176.2 33.4
2001-08-31 13:24:36 51°33.189 2°42.683 196.8 11.9 190.5 33.7
2001-08-31 13:25:36 51°32.997 2°42.59 202.5 12.2 198.3 33.5
2001-08-31 13:26:36 51°32.809 2°42.476 203.7 12.1 200.3 34.2
2001-08-31 13:27:36 51°32.619 2°42.362 203.5 12.2 199.4 34.6
2001-08-31 13:28:36 51°32.43 2°42.248 206.3 12.1 202.4 34.1
2001-08-31 13:29:36 51°32.239 2°42.134 203.7 12.4 199.3 34.5
2001-08-31 13:30:36 51°32.047 2°42.025 200.7 12.4 197.5 35
2001-08-31 13:31:36 51°31.854 2°41.93 198.3 12.2 195.1 33.1
2001-08-31 13:32:36 51°31.66 2°41.821 199.5 12.2 196.3 33.8
2001-08-31 13:33:36 51°31.466 2°41.713 205.5 12.4 202.9 34.8
2001-08-31 13:34:36 51°31.279 2°41.583 204.5 12.2 201.4 35.7
2001-08-31 13:35:36 51°31.088 2°41.457 207 12.4 202.9 34.6
2001-08-31 13:36:36 51°30.897 2°41.336 207.2 12.2 203.8 37.8
2001-08-31 13:37:36 51°30.706 2°41.223 202.5 12.3 199.5 35.8
2001-08-31 13:38:36 51°30.541 2°41.049 230.2 12.2 228.3 35
2001-08-31 13:39:36 51°30.444 2°40.773 264 12.1 264.4 37.5
2001-08-31 13:40:36 51°30.44 2°40.442 262.5 12.6 263.7 37.8
2001-08-31 13:41:36 51°30.427 2°40.103 264 12.8 265.2 39.3
2001-08-31 13:42:36 51°30.429 2°39.763 270.7 12.8 271.8 42.3
2001-08-31 13:43:36 51°30.424 2°39.426 267.3 12.6 268.4 40.1
2001-08-31 13:44:36 51°30.424 2°39.087 270.3 12.7 271.4 37.8
2001-08-31 13:45:36 51°30.423 2°38.749 268.8 12.7 270.5 37.9
2001-08-31 13:46:36 51°30.421 2°38.412 266.8 12.5 268 38.8
2001-08-31 13:47:36 51°30.416 2°38.077 268.8 12.6 269.7 37.1
2001-08-31 13:48:36 51°30.417 2°37.742 270 12.7 271.4 26.8
2001-08-31 13:49:36 51°30.426 2°37.407 271.7 12.6 273.5 22.1
2001-08-31 13:50:36 51°30.451 2°37.076 287.2 12.7 289.1 25
2001-08-31 13:51:36 51°30.586 2°36.8 308.5 13.5 310.8 27.5
2001-08-31 13:52:36 51°30.698 2°36.495 294 13.2 296.5 34
2001-08-31 13:53:36 51°30.775 2°36.168 287 13.2 289.9 38
2001-08-31 13:54:36 51°30.852 2°35.84 287.2 13.2 289.3 39.1
2001-08-31 13:55:36 51°30.917 2°35.504 285.5 13.2 287 38.4
2001-08-31 13:56:36 51°30.981 2°35.171 287.7 13.1 288 37.9
2001-08-31 13:57:36 51°30.953 2°34.849 238.2 12.4 238.6 36.5
2001-08-31 13:58:36 51°30.769 2°34.754 169.7 12.5 166.7 36.8
2001-08-31 13:59:36 51°30.574 2°34.907 159.8 13.3 156.5 36.3
2001-08-31 14:00:36 51°30.38 2°35.057 156.2 12.9 151.8 38.1
2001-08-31 14:01:36 51°30.192 2°35.226 155.2 12.9 150.5 39.2
2001-08-31 14:02:36 51°29.999 2°35.387 155.2 13 151 40.7
2001-08-31 14:03:36 51°29.807 2°35.55 159.8 13 155.1 38.6
2001-08-31 14:04:36 51°29.609 2°35.688 161.2 13.1 155.7 35.7
2001-08-31 14:05:36 51°29.417 2°35.839 161.5 12.7 155.3 35.1
2001-08-31 14:06:36 51°29.229 2°36.008 152.7 13 147.1 33
2001-08-31 14:07:36 51°29.037 2°36.163 164 12.6 158.7 30
2001-08-31 14:08:36 51°28.837 2°36.271 167.3 12.7 163.2 27.6
2001-08-31 14:09:36 51°28.627 2°36.354 170.2 13.1 166.2 23.7
2001-08-31 14:10:36 51°28.417 2°36.45 170.8 13 166.3 27.4
2001-08-31 14:11:36 51°28.208 2°36.55 168 13.2 163.8 34.3
2001-08-31 14:12:36 51°27.998 2°36.646 167.2 13.1 162.9 35.6
2001-08-31 14:13:36 51°27.786 2°36.735 167.8 13.1 164.6 35.9
2001-08-31 14:14:36 51°27.576 2°36.815 171.2 12.9 166.9 33.4
2001-08-31 14:15:36 51°27.368 2°36.904 170.8 12.9 166.8 32.6
2001-08-31 14:16:36 51°27.162 2°36.997 168.3 12.8 163.7 32.5
2001-08-31 14:17:36 51°26.956 2°37.084 171.5 12.8 167.2 32.9
2001-08-31 14:18:36 51°26.748 2°37.16 168.3 12.8 164.6 33.2
2001-08-31 14:19:36 51°26.537 2°37.226 174.5 12.9 169.4 34.3
2001-08-31 14:20:36 51°26.327 2°37.299 172.5 13.1 167.8 34.2
2001-08-31 14:21:36 51°26.114 2°37.365 176.7 12.9 171.9 33.2
2001-08-31 14:22:36 51°25.907 2°37.445 168.8 12.7 164.6 33.7
2001-08-31 14:23:36 51°25.699 2°37.524 173.8 12.7 169.1 33.1
2001-08-31 14:24:36 51°25.488 2°37.606 174 12.9 169.2 32.6
2001-08-31 14:25:36 51°25.277 2°37.665 173 12.8 168.6 32.9
2001-08-31 14:26:36 51°25.065 2°37.73 174.2 13.2 169 31.6
2001-08-31 14:27:36 51°24.85 2°37.784 176.2 13 171.9 31
2001-08-31 14:28:36 51°24.634 2°37.839 175.5 13.2 171.6 31.8
2001-08-31 14:29:36 51°24.418 2°37.89 175.5 13.1 171.3 28.4
2001-08-31 14:30:36 51°24.202 2°37.946 169.3 13 164.9 25.2
2001-08-31 14:31:36 51°23.991 2°38.016 175 13.1 171.2 24.7
2001-08-31 14:32:36 51°23.777 2°38.06 177 12.7 172.1 25.2
2001-08-31 14:33:36 51°23.561 2°38.104 178.5 13.1 173 23.3
2001-08-31 14:34:36 51°23.351 2°38.17 174.8 13 169.7 28.2
2001-08-31 14:35:36 51°23.137 2°38.226 175 13 170.7 29.1
2001-08-31 14:36:36 51°22.922 2°38.267 176.7 13.2 173.2 30
2001-08-31 14:37:36 51°22.707 2°38.316 175.2 13.1 172.2 30.5
2001-08-31 14:38:36 51°22.491 2°38.368 172.8 13.1 169.7 29.5
2001-08-31 14:39:36 51°22.275 2°38.432 175.2 13.1 171.8 31.1
2001-08-31 14:40:36 51°22.059 2°38.499 173 13.2 169.8 30
2001-08-31 14:41:36 51°21.847 2°38.572 170.7 13 167.6 27.5
2001-08-31 14:42:36 51°21.636 2°38.664 166.5 13.1 163.4 27.4
2001-08-31 14:43:36 51°21.442 2°38.826 147 13.2 145.1 26.4
2001-08-31 14:44:36 51°21.263 2°39.032 144.2 13.3 141.5 24.7
2001-08-31 14:45:36 51°21.101 2°39.278 133 13.4 130 25
2001-08-31 14:46:36 51°21.001 2°39.596 120 13.6 115.9 25.4
2001-08-31 14:47:36 51°20.905 2°39.919 117.5 13.4 114 26.6
2001-08-31 14:48:36 51°20.815 2°40.251 114 13.4 109.8 26.5
2001-08-31 14:49:36 51°20.729 2°40.581 115.5 13.6 112.2 26.4
2001-08-31 14:50:36 51°20.627 2°40.892 128.2 13.1 123.6 27.2
2001-08-31 14:51:36 51°20.517 2°41.197 123 13.2 118.9 26.6
2001-08-31 14:52:36 51°20.413 2°41.517 117.8 13.7 114.6 20.5
2001-08-31 14:53:36 51°20.314 2°41.838 117.7 13.2 115.9 18.4
2001-08-31 14:54:36 51°20.223 2°42.159 115.2 13.4 113 20.3
2001-08-31 14:55:36 51°20.146 2°42.499 113.7 13.5 111.1 24.2
2001-08-31 14:56:36 51°20.059 2°42.827 114.5 13.5 112.8 25.7
2001-08-31 14:57:36 51°19.974 2°43.159 115.7 13.5 113.1 26.3
2001-08-31 14:58:36 51°19.887 2°43.498 113 13.7 110 26
2001-08-31 14:59:36 51°19.813 2°43.842 114.2 13.4 110.5 24.5
2001-08-31 15:00:36 51°19.715 2°44.161 123.3 13.4 118.8 24.1
2001-08-31 15:01:36 51°19.623 2°44.484 112.3 13.4 109.4 22.6
2001-08-31 15:02:36 51°19.538 2°44.815 116.5 13.5 113.5 21.4
2001-08-31 15:03:36 51°19.443 2°45.135 119.2 13.1 117.2 13.4
2001-08-31 15:04:36 51°19.357 2°45.453 113.5 13 111.3 13.1
2001-08-31 15:05:36 51°19.274 2°45.776 115.8 13.2 114 16.2
2001-08-31 15:06:36 51°19.177 2°46.098 117.5 13.3 115.2 18.7
2001-08-31 15:07:36 51°19.091 2°46.43 114.5 13.5 111.9 21.4
2001-08-31 15:08:36 51°19.01 2°46.759 113 13.2 110.7 20.6
2001-08-31 15:09:36 51°18.933 2°47.089 113.2 13.3 111.3 20
2001-08-31 15:10:36 51°18.854 2°47.418 112.2 13.1 110 18.6
2001-08-31 15:11:36 51°18.774 2°47.741 115 13.1 112.9 16.2
2001-08-31 15:12:36 51°18.691 2°48.066 109.3 13.4 108.3 14.3
2001-08-31 15:13:36 51°18.61 2°48.392 116.7 13.2 115.5 12.4
2001-08-31 15:14:36 51°18.528 2°48.711 115 12.9 113.2 11.3
2001-08-31 15:15:36 51°18.434 2°49.026 118.7 13.4 116.9 10.9
2001-08-31 15:16:36 51°18.35 2°49.346 116.8 13.1 115.4 11.6
2001-08-31 15:17:36 51°18.262 2°49.665 118.2 13.5 116.4 13.3
2001-08-31 15:18:36 51°18.169 2°49.986 113.2 13.1 111.9 14.1
2001-08-31 15:19:36 51°18.086 2°50.312 114.2 13 112.1 13.6
2001-08-31 15:20:36 51°17.993 2°50.622 118.8 13 118.3 12.8
2001-08-31 15:21:36 51°17.885 2°50.927 119.3 13.2 118.6 11.7
2001-08-31 15:22:36 51°17.778 2°51.233 124.7 13.1 122.8 10.4
2001-08-31 15:23:36 51°17.661 2°51.527 121.8 13.2 121.1 9.9
2001-08-31 15:24:36 51°17.549 2°51.83 124.7 13.1 123 10.4
2001-08-31 15:25:36 51°17.388 2°52.066 146.7 13.3 146.8 10.5
2001-08-31 15:26:36 51°17.2 2°52.257 148.2 13.6 147.7 10.2
2001-08-31 15:27:36 51°17.01 2°52.446 146.8 13.3 147 9.6
2001-08-31 15:28:36 51°16.823 2°52.637 149.7 13.1 149 9.8
2001-08-31 15:29:36 51°16.637 2°52.826 147.3 13.2 147.8 11.3
2001-08-31 15:30:36 51°16.446 2°53.007 151.2 13.4 151.1 12.1
2001-08-31 15:31:36 51°16.252 2°53.189 150.3 13.5 150.5 12.2
2001-08-31 15:32:36 51°16.061 2°53.376 147.3 13.6 147.9 11.9
2001-08-31 15:33:36 51°15.872 2°53.56 148.3 13.4 148.8 11.4
2001-08-31 15:34:36 51°15.68 2°53.746 148.2 13.6 148.5 10.7
2001-08-31 15:35:36 51°15.488 2°53.929 149 13.4 149.6 9.9
2001-08-31 15:36:36 51°15.3 2°54.116 146.5 13.3 147.3 9
2001-08-31 15:37:36 51°15.116 2°54.305 142.5 13.1 143.6 8.5
2001-08-31 15:38:36 51°14.931 2°54.494 145 13 145.7 8.6
2001-08-31 15:39:36 51°14.776 2°54.654 147.7 8.4 149.6 9.3
2001-08-31 15:40:36 51°14.692 2°54.744 137.3 5 142.3 9.3
2001-08-31 15:41:36 51°14.66 2°54.822 96.7 2.8 103.7 9.3
2001-08-31 15:42:36 51°14.665 2°54.878 61.7 1.8 64.2 9.1
2001-08-31 15:43:36 51°14.681 2°54.904 33 1.2 31.5 9
2001-08-31 15:44:36 51°14.697 2°54.918 36 1 35.4 9.1
2001-08-31 15:45:36 51°14.711 2°54.936 41 1 43.8 9
2001-08-31 15:46:36 51°14.723 2°54.955 39.5 1 40 9.2
2001-08-31 15:47:36 51°14.735 2°54.972 36.8 0.9 37.2 9.2
2001-08-31 15:48:36 51°14.748 2°54.983 30.3 0.9 21.3 8.9
2001-08-31 15:49:36 51°14.764 2°54.989 23.8 1 5.3 8.9
2001-08-31 15:50:36 51°14.797 2°54.963 330.5 3.3 315.6 8.9
2001-08-31 15:51:36 51°14.795 2°54.848 240.2 6.1 236.4 8.9
2001-08-31 15:52:36 51°14.645 2°54.833 172.3 11.9 174.3 9
2001-08-31 15:53:36 51°14.446 2°54.932 144.2 12.7 147.5 9.5
2001-08-31 15:54:36 51°14.298 2°55.168 131.2 12.7 129.5 9.4
2001-08-31 15:55:36 51°14.16 2°55.386 147 10.3 144.8 8.5
2001-08-31 15:56:36 51°14.028 2°55.484 158.8 7.5 156.8 9.9
2001-08-31 15:57:40 51°13.921 2°55.558 159.2 6 157.1 9.9
2001-08-31 15:58:40 51°13.848 2°55.61 157.8 4.3 155.9 9.9
2001-08-31 15:59:40 51°13.794 2°55.655 148.8 3.3 147.8 9.9
2001-08-31 16:00:40 51°13.756 2°55.703 138.3 2.8 137.6 9.9
2001-08-31 16:01:40 51°13.725 2°55.759 128.2 2.8 126.7 9.9
2001-08-31 16:02:40 51°13.703 2°55.822 116.5 2.6 112.3 -999
2001-08-31 16:03:40 51°13.69 2°55.879 115.8 2 111.5 -999
2001-08-31 16:04:40 51°13.678 2°55.916 129.2 0.3 130.7 -999
2001-08-31 16:05:41 51°13.676 2°55.923 125.7 0.4 92.3 -999
2001-08-31 16:06:40 51°13.677 2°55.924 123.7   335.1 -999
2001-08-31 16:07:40 51°13.677 2°55.923 127.5   338.8 -999
2001-08-31 16:08:41 51°13.677 2°55.923 130.3   254.4 -999
2001-08-31 16:09:40 51°13.676 2°55.923 130   117.9 -999
2001-08-31 16:10:41 51°13.676 2°55.923 129.7   287.8 -999
2001-08-31 16:11:42 51°13.676 2°55.924 359.8   233.7 -999